Regional Weather Roundup
Issued by NWS Wilmington, NC

Home | Current Version | Previous Version | Text Only | Print | Product List | Glossary On
Versions: 1 2 3 4 5 6 7 8 9 10 11 12 13 14 15 16 17 18 19 20 21 22 23 24 25 26 27 28 29 30 31 32 33 34 35 36 37 38 39 40 41 42 43 44 45 46 47 48 49 50
000
ASUS42 KILM 261310
RWRILM
RWRILM
REGIONAL HOURLY WEATHER ROUNDUP
NATIONAL WEATHER SERVICE WILMINGTON NC
800 AM EST MON JAN 26 2015

NOTE: "FAIR" INDICATES FEW OR NO CLOUDS BELOW 12,000 FEET WITH NO
SIGNIFICANT WEATHER AND/OR OBSTRUCTIONS TO VISIBILITY.

...............WFO WILMINGTON COUNTY WARNING AREA...............

......COASTAL NC AND SC COUNTIES......

CITY           SKY/WX    TMP DP  RH WIND       PRES   REMARKS
WILMINGTON     CLOUDY    48  45  89 W6        29.67S
SOUTHPORT      CLOUDY    50  47  87 W8        29.67F
N MYRTLE BEACH MOCLDY    49  44  83 W6        29.68S
MYRTLE BEACH   MOCLDY    50  43  76 W10       29.70S

......INLAND NC AND SC COUNTIES.......

CITY           SKY/WX    TMP DP  RH WIND       PRES   REMARKS
LUMBERTON      CLOUDY    44  41  89 CALM      29.67S
ELIZABETHTOWN  PTCLDY    42  41  97 CALM      29.67S
WHITEVILLE     MOCLDY    44  42  93 CALM      29.66F
FLORENCE       CLEAR     41  39  93 SW6       29.68R
DARLINGTON     CLEAR     39  36  87 S6        29.68S WCI  35

....................REST OF NORTH CAROLINA......................

.........EASTERN NC.........

CITY           SKY/WX    TMP DP  RH WIND       PRES   REMARKS
CAPE HATTERAS  CLOUDY    49  45  86 W6        29.70S
JACKSONVILLE   CLOUDY    39  36  87 CALM      29.68F
MOREHEAD CITY  CLOUDY    43  42  97 CALM      29.70S
KENANSVILLE    MOCLDY    36  36 100 CALM      29.68F FOG
NEW BERN       CLOUDY    41  37  86 CALM      29.70S
ELIZABETH CITY CLOUDY    43  40  89 CALM      29.71F

.........CENTRAL NC.........

CITY           SKY/WX    TMP DP  RH WIND       PRES   REMARKS
RALEIGH DURHAM LGT RAIN  40  37  89 E3        29.68F FOG
ROCKY MOUNT    PTCLDY    34  33  96 S6        29.70S FOG     WCI  29
ROANOKE RAPIDS NOT AVBL
FAYETTEVILLE   CLOUDY    40  38  93 CALM      29.67S
HOFFMAN        FOG       36  36 100 SW1       29.67S VSB 1

.........WESTERN NC.........

CITY           SKY/WX    TMP DP  RH WIND       PRES   REMARKS
CHARLOTTE      MOCLDY    40  33  76 S5        29.65R
GREENSBORO     LGT RAIN  40  36  86 CALM      29.64S
HICKORY        NOT AVBL
BOONE          NOT AVBL
ASHEVILLE      NOT AVBL

.....................REST OF SOUTH CAROLINA.....................

.........EASTERN SC.........

CITY           SKY/WX    TMP DP  RH WIND       PRES   REMARKS
CHARLESTON     PTCLDY    48  44  86 W7        29.71F
BEAUFORT MCAS  PTCLDY    48  45  89 W12       29.73R
HILTON HEAD    CLEAR     50  46  87 SW8       29.73F

.........CENTRAL SC.........

CITY           SKY/WX    TMP DP  RH WIND       PRES   REMARKS
COLUMBIA       PTCLDY    38  36  92 CALM      29.68R
ORANGEBURG     CLEAR     39  38  96 S5        29.69S FOG
SUMTER SHAW    CLEAR     37  36  94 SW3       29.67R

.........WESTERN SC.........

CITY           SKY/WX    TMP DP  RH WIND       PRES   REMARKS
GREENVILLE     NOT AVBL
ROCK HILL      MOCLDY    37  33  85 SW5       29.65R WCI  33
ANDERSON       MOCLDY    43  40  89 W9        29.68R
CLEMSON        NOT AVBL
GREENWOOD      CLEAR     42  38  85 SW9       29.69R


...................COASTAL AND OFFSHORE REPORTS..................

................LOCAL PIERS AND NC RESERVE................


STATION/POSITION TIME  SKY/WX   TEMP    WIND        PRES    VSBY
                                AIR SEA DIR/SP/G
                 (UTC)          (F)     (DEG/KT/KT) (MB)    (MI)
JOHNY MRCER PIER 1300            50 53  260/  5/  9 1004.0F
NC RESRV MASNBRO 1200            50     230/  3     1005.0F
OCEAN CREST PIER 1300            52 52  230/ 15/ 17 1004.0F
SPRINGMAID  PIER 1300            50 50  240/  8/ 11 1005.0S


................COASTAL AND OFFSHORE BUOYS................


STATION/POSITION TIME  SKY/WX   TEMP    WIND        PRES    VSBY
                                AIR SEA DIR/SP/G
                 (UTC)          (F)     (DEG/KT/KT) (MB)    (MI)
DIMNDSHOAL 41025 1300            58 69  290/  8/ 14 1005.3F
WVE H/P(F/S)=  3/ 8 WND WVE H/P(F/S)=  2/ 4 SWL H/P/D(F/S/D)=  3/ 80/ 8

CAPE LOOKOUT     1200            50     360/  5/  5 1005.5S
ONSLOW BAY 41036 NOT AVBL
5 WRITEBCH 41038 1200            53 51  250/ 10/ 12 1004.7F
MASONBORO  41110 1300               51                N/A
WVE H/P(F/S)=  3/ 6 WND WVE H/P(F/S)=  3/ 6

WILM HARBR 41108 1300               53                N/A
WVE H/P(F/S)=  6/ 7 WND WVE H/P(F/S)=  7/ 7

27WRITEBCH 41037 NOT AVBL
FRYING PAN 41013 1300            58 67  270/ 19/ 23 1004.7F
WVE H/P(F/S)=  7/ 7 WND WVE H/P(F/S)=  7/ 7

SUNST NRSH 41024 1200            52     240/ 10/ 12   N/A
CAPRS NRSH 41029 NOT AVBL
EDISTO     41004 1300            59 69  270/ 19/ 23 1004.6F
WVE H/P(F/S)=  7/ 7 WND WVE H/P(F/S)=  7/ 7



..........OFFSHORE BUOYS BEYOND 100 NM OFFSHORE...........
.....IN A TRIANGLE---HAT TO BERMUDA TO BAHAMAS TO HAT.....


STATION/POSITION TIME  SKY/WX   TEMP    WIND        PRES    VSBY
                                AIR SEA DIR/SP/G
                 (UTC)          (F)     (DEG/KT/KT) (MB)    (MI)
150E HAT   41001 NOT AVBL
W BERMUDA  41048 1228            69 72  190/ 14/ 16 1011.8F
WVE H/P(F/S)=  7/ 9 WND WVE H/P(F/S)=  3/ 5 SWL H/P/D(F/S/D)=  7/260/ 9

ATLANTIC S 41049 1205            76 75  190/ 10/ 12 1016.4
WVE H/P(F/S)=  6/11 WND WVE H/P(F/S)=  2/ 4 SWL H/P/D(F/S/D)=  5/300/11

E BAHAMAS  41046 1211            78 79  170/ 14/ 17 1015.4
WVE H/P(F/S)=  5/11 WND WVE H/P(F/S)=  3/ 5 SWL H/P/D(F/S/D)=  3/310/11

NE BAHAMAS 41047 1202            71 76  180/  4/  6 1013.1R
WVE H/P(F/S)=  5/ 8 WND WVE H/P(F/S)=  2/ 4 SWL H/P/D(F/S/D)=  5/320/ 8

120E CANVRL41010 1300            69 76  230/ 21/ 27 1009.0F
WVE H/P(F/S)=  5/ 6 WND WVE H/P(F/S)=  5/ 6 SWL H/P/D(F/S/D)=  2/130/10


END


USA.gov is the U.S. government's official web portal to all federal, state and local government web resources and services.